Flag for Spain Weather past 2 weeks in Alicante, Spain

Now
79 °F

Passing clouds.


Feels Like: 82 °F
Forecast: 73 / 86 °F
Wind: No wind

Location: Alicante / El Altet

Current Time: Aug 30, 2014 at 2:34:37 AM

Latest Report: Aug 30, 2014 at 2:00 AM


Visibility: N/A

Pressure: 29.98 "Hg

Humidity: 79%

Dew point: 72 °F

Location of AlicanteLocation

Historic Weather in Alicante — Graph

°F

Alicante temperature yesterday

Maximum temperature yesterday: 84 °F (at 1:30 PM)
Minimum temperature yesterday: 75 °F (at 4:00 AM)
Average temperature yesterday: 80 °F

Past Weeks' High & Low Weather Summary

 TemperatureHumidityPressure
High93 °F (Aug 26, 12:30 PM)94% (Aug 17, 5:00 AM)30.12 "Hg (Aug 17, 5:00 AM)
Low70 °F (Aug 18, 4:30 AM)24% (Aug 26, 12:30 PM)29.83 "Hg (Aug 18, 7:30 PM)
Average80 °F70%29.98 "Hg
* Reported Aug 15 1:00 AM — Aug 30 1:30 AM, Alicante, Weather by CustomWeather, © 2014

Note: Actual official high and low records may vary slightly from our data, if they occured in-between our weather recording intervals... More about our weather records

Advertising

Alicante weather history for previous 24 hours

 ConditionsComfort  
Time TempWeatherWind HumidityBarometerVisibility
1:30 AM
Aug 30
81 °FPassing clouds.2 mph74%30.01 "HgN/A
1:00 AM81 °FPassing clouds.5 mph74%30.01 "HgN/A
12:30 AM81 °FOvercast.8 mph74%30.01 "HgN/A
12:00 AM81 °FOvercast.9 mph74%30.01 "HgN/A
11:30 PM
Aug 29
81 °FOvercast.12 mph79%29.98 "HgN/A
11:00 PM81 °FOvercast.12 mph79%29.98 "HgN/A
9:00 PM81 °FOvercast.12 mph79%29.95 "HgN/A
8:30 PM81 °FPartly sunny.10 mph74%29.95 "HgN/A
8:00 PM81 °FScattered clouds.10 mph74%29.95 "HgN/A
7:30 PM81 °FPassing clouds.10 mph79%29.95 "HgN/A
7:00 PM82 °FPassing clouds.9 mph70%29.95 "HgN/A
6:30 PM82 °FPassing clouds.10 mph70%29.95 "HgN/A
6:00 PM82 °FPassing clouds.9 mph70%29.95 "HgN/A
5:30 PM84 °FPassing clouds.12 mph70%29.95 "HgN/A
5:00 PM82 °FPassing clouds.12 mph70%29.95 "HgN/A
4:30 PM84 °FPassing clouds.12 mph66%29.95 "HgN/A
4:00 PM84 °FPassing clouds.12 mph66%29.95 "HgN/A
3:30 PM84 °FPassing clouds.12 mph66%29.98 "HgN/A
3:00 PM84 °FPassing clouds.12 mph70%29.98 "HgN/A
2:30 PM84 °FPassing clouds.10 mph70%29.98 "HgN/A
2:00 PM84 °FPassing clouds.10 mph66%29.98 "HgN/A
1:30 PM84 °FPassing clouds.10 mph70%29.98 "HgN/A
1:00 PM82 °FScattered clouds.8 mph70%29.98 "HgN/A
12:30 PM82 °FScattered clouds.8 mph74%30.01 "HgN/A
12:00 PM82 °FPassing clouds.8 mph70%29.98 "HgN/A
11:30 AM81 °FPassing clouds.6 mph74%30.01 "HgN/A
11:00 AM81 °FPassing clouds.6 mph74%29.98 "HgN/A
10:30 AM81 °FPassing clouds.2 mph74%29.98 "HgN/A
10:00 AM81 °FPassing clouds.No wind74%29.98 "Hg6 mi
9:30 AM79 °FPassing clouds.No wind79%29.98 "Hg6 mi
9:00 AM77 °FPassing clouds.No wind83%29.98 "HgN/A
8:30 AM77 °FPassing clouds.No wind83%29.98 "HgN/A
8:00 AM75 °FPassing clouds.1 mph83%29.98 "HgN/A
7:30 AM75 °FPassing clouds.2 mph89%29.98 "HgN/A
7:00 AM75 °FPassing clouds.1 mph83%29.95 "HgN/A
6:30 AM75 °FPassing clouds.No wind83%29.98 "HgN/A
6:00 AM75 °FPassing clouds.2 mph83%29.95 "HgN/A
5:30 AM75 °FPassing clouds.No wind83%29.95 "HgN/A
4:30 AM75 °FPassing clouds.1 mph83%29.95 "HgN/A
4:00 AM75 °FPassing clouds.1 mph83%29.95 "HgN/A
3:30 AM77 °FPassing clouds.No wind79%29.98 "HgN/A
3:00 AM77 °FPassing clouds.1 mph83%29.98 "HgN/A
2:30 AM79 °FPassing clouds.No wind79%29.98 "HgN/A
2:00 AM79 °FPassing clouds.No wind79%29.98 "HgN/A
Weather by CustomWeather, © 2014

See weather overviewHow to use our weather pages